TimeHST,TemperatureF,Dew PointF,Humidity,Sea Level PressureIn,VisibilityMPH,Wind Direction,Wind SpeedMPH,Gust SpeedMPH,PrecipitationIn,Events,Conditions,WindDirDegrees,DateUTC
12:53 AM,75.9,72.0,87,29.94,10.0,NNW,8.1,-,0.00,,Mostly Cloudy,330,2013-09-13 10:53:00
1:53 AM,75.0,72.0,90,29.93,10.0,NNW,4.6,-,0.00,,Mostly Cloudy,330,2013-09-13 11:53:00
2:53 AM,75.0,72.0,90,29.91,10.0,NNW,8.1,-,0.00,,Mostly Cloudy,340,2013-09-13 12:53:00
3:53 AM,73.9,73.0,97,29.90,10.0,NNW,5.8,-,0.03,,Mostly Cloudy,340,2013-09-13 13:53:00
4:53 AM,73.9,73.0,97,29.90,10.0,NW,3.5,-,N/A,,Mostly Cloudy,320,2013-09-13 14:53:00
5:40 AM,73.4,71.6,94,29.92,5.0,East,4.6,-,0.03,Rain,Rain,80,2013-09-13 15:40:00
5:53 AM,73.0,72.0,96,29.92,6.0,Calm,Calm,-,0.09,Rain,Rain,0,2013-09-13 15:53:00
5:58 AM,73.4,71.6,94,29.92,6.0,Calm,Calm,-,0.00,Rain,Light Rain,0,2013-09-13 15:58:00
6:53 AM,73.0,72.0,96,29.92,8.0,North,4.6,-,0.03,Rain,Light Rain,350,2013-09-13 16:53:00
7:45 AM,73.4,71.6,94,29.94,2.5,North,6.9,-,0.11,Rain,Heavy Rain,10,2013-09-13 17:45:00
7:53 AM,73.0,72.0,96,-9999,2.5,North,4.6,-,0.18,Rain,Rain,360,2013-09-13 17:53:00
8:00 AM,73.4,71.6,94,29.94,3.0,NW,6.9,-,0.02,Rain,Rain,320,2013-09-13 18:00:00
8:53 AM,75.0,73.0,94,29.95,10.0,North,4.6,-,0.06,,Mostly Cloudy,10,2013-09-13 18:53:00
9:53 AM,75.0,73.9,96,29.96,5.0,ESE,4.6,-,0.04,Rain,Light Rain,110,2013-09-13 19:53:00
10:53 AM,79.0,73.0,82,29.94,10.0,NE,6.9,-,0.01,Rain,Light Rain,40,2013-09-13 20:53:00
11:53 AM,82.0,70.0,67,29.92,10.0,ENE,16.1,23.0,0.00,,Mostly Cloudy,60,2013-09-13 21:53:00
12:53 PM,84.9,66.9,55,29.90,10.0,ENE,16.1,23.0,N/A,,Mostly Cloudy,60,2013-09-13 22:53:00
1:53 PM,86.0,66.9,53,29.88,10.0,ENE,15.0,21.9,N/A,,Mostly Cloudy,70,2013-09-13 23:53:00
2:53 PM,84.0,68.0,58,29.87,10.0,East,11.5,19.6,N/A,,Mostly Cloudy,80,2013-09-14 00:53:00
3:53 PM,84.9,68.0,57,29.87,10.0,ENE,18.4,-,N/A,,Mostly Cloudy,70,2013-09-14 01:53:00
4:53 PM,84.9,66.0,53,29.88,10.0,NE,16.1,20.7,N/A,,Mostly Cloudy,50,2013-09-14 02:53:00
5:53 PM,82.9,66.9,58,29.89,10.0,ENE,12.7,-,N/A,,Mostly Cloudy,60,2013-09-14 03:53:00
6:53 PM,81.0,68.0,65,29.90,10.0,ENE,13.8,-,N/A,,Mostly Cloudy,70,2013-09-14 04:53:00
7:53 PM,81.0,68.0,65,29.92,10.0,ENE,8.1,-,N/A,,Mostly Cloudy,60,2013-09-14 05:53:00
8:53 PM,81.0,66.9,62,29.94,10.0,ENE,11.5,-,N/A,,Mostly Cloudy,70,2013-09-14 06:53:00
9:53 PM,80.1,68.0,67,29.94,10.0,NE,11.5,-,N/A,,Mostly Cloudy,40,2013-09-14 07:53:00
10:53 PM,80.1,66.9,64,29.93,10.0,NE,10.4,-,N/A,,Scattered Clouds,40,2013-09-14 08:53:00
11:53 PM,79.0,68.0,69,29.92,10.0,ENE,8.1,-,N/A,,Scattered Clouds,70,2013-09-14 09:53:00